Time,TemperatureF,DewpointF,PressureIn,WindDirection,WindDirectionDegrees,WindSpeedMPH,WindSpeedGustMPH,Humidity,HourlyPrecipIn,Conditions,Clouds,dailyrainin,SoftwareType,DateUTC
2013-05-15 00:10:00,74.1,53.2,29.74,South,179,6.0,11.0,48,0.00,,---,0.00,VWS V14.01,2013-05-15 05:10:00,
2013-05-15 00:25:00,73.3,53.6,29.73,South,190,3.0,10.0,50,0.00,,---,0.00,VWS V14.01,2013-05-15 05:25:00,
2013-05-15 00:40:00,73.0,54.4,29.74,South,181,3.0,12.0,52,0.00,,---,0.00,VWS V14.01,2013-05-15 05:40:00,
2013-05-15 00:55:00,73.1,55.0,29.75,South,190,3.0,12.0,53,0.00,,---,0.00,VWS V14.01,2013-05-15 05:55:00,
2013-05-15 01:10:00,72.8,55.7,29.75,SSW,206,9.0,12.0,55,0.00,,---,0.00,VWS V14.01,2013-05-15 06:10:00,
2013-05-15 01:25:00,72.9,56.3,29.75,SSW,196,8.0,14.0,56,0.00,,---,0.00,VWS V14.01,2013-05-15 06:25:00,
2013-05-15 01:40:00,73.1,57.0,29.74,South,172,9.0,16.0,57,0.00,,---,0.00,VWS V14.01,2013-05-15 06:40:00,
2013-05-15 01:55:00,73.0,56.9,29.74,South,180,8.0,16.0,57,0.00,,---,0.00,VWS V14.01,2013-05-15 06:55:00,
2013-05-15 02:10:00,72.6,57.0,29.74,South,188,8.0,16.0,58,0.00,,---,0.00,VWS V14.01,2013-05-15 07:10:00,
2013-05-15 02:25:00,72.4,56.8,29.74,SSW,209,9.0,14.0,58,0.00,,---,0.00,VWS V14.01,2013-05-15 07:25:00,
2013-05-15 02:40:00,72.1,56.5,29.74,WSW,238,10.0,20.0,58,0.00,,---,0.00,VWS V14.01,2013-05-15 07:40:00,
2013-05-15 02:55:00,71.7,56.2,29.74,SSW,201,10.0,18.0,58,0.00,,---,0.00,VWS V14.01,2013-05-15 07:55:00,
2013-05-15 03:10:00,71.5,56.4,29.75,South,171,7.0,16.0,59,0.00,,---,0.00,VWS V14.01,2013-05-15 08:10:00,
2013-05-15 03:25:00,71.4,56.3,29.75,South,190,6.0,18.0,59,0.00,,---,0.00,VWS V14.01,2013-05-15 08:25:00,
2013-05-15 03:40:00,71.3,56.2,29.75,SSW,204,9.0,18.0,59,0.00,,---,0.00,VWS V14.01,2013-05-15 08:40:00,
2013-05-15 03:55:00,70.8,56.2,29.75,SSW,198,4.0,15.0,60,0.00,,---,0.00,VWS V14.01,2013-05-15 08:55:00,
2013-05-15 04:10:00,70.4,56.3,29.76,SSW,193,4.0,16.0,61,0.00,,---,0.00,VWS V14.01,2013-05-15 09:10:00,
2013-05-15 04:25:00,69.9,56.3,29.76,SSW,196,10.0,13.0,62,0.00,,---,0.00,VWS V14.01,2013-05-15 09:25:00,
2013-05-15 04:40:00,69.4,56.3,29.76,SSW,203,6.0,12.0,63,0.00,,---,0.00,VWS V14.01,2013-05-15 09:40:00,
2013-05-15 04:55:00,68.9,56.2,29.77,SSW,211,4.0,13.0,64,0.00,,---,0.00,VWS V14.01,2013-05-15 09:55:00,
2013-05-15 05:10:00,68.2,56.0,29.77,SSW,196,5.0,10.0,65,0.00,,---,0.00,VWS V14.01,2013-05-15 10:10:00,
2013-05-15 05:25:00,67.7,56.0,29.77,SSW,194,4.0,7.0,66,0.00,,---,0.00,VWS V14.01,2013-05-15 10:25:00,
2013-05-15 05:40:00,67.2,55.9,29.78,South,190,3.0,6.0,67,0.00,,---,0.00,VWS V14.01,2013-05-15 10:40:00,
2013-05-15 05:55:00,66.8,55.9,29.77,South,188,3.0,6.0,68,0.00,,---,0.00,VWS V14.01,2013-05-15 10:55:00,
2013-05-15 06:25:00,66.5,56.0,29.77,South,182,4.0,6.0,69,0.00,,---,0.00,VWS V14.01,2013-05-15 11:25:00,
2013-05-15 06:40:00,66.8,56.3,29.78,South,181,5.0,9.0,69,0.00,,---,0.00,VWS V14.01,2013-05-15 11:40:00,
2013-05-15 07:10:00,67.9,57.0,29.79,SSW,194,7.0,11.0,68,0.00,,---,0.00,VWS V14.01,2013-05-15 12:10:00,
2013-05-15 07:25:00,68.5,57.1,29.79,SSW,205,7.0,12.0,67,0.00,,---,0.00,VWS V14.01,2013-05-15 12:25:00,
2013-05-15 07:40:00,68.9,57.5,29.79,SSW,197,4.0,11.0,67,0.00,,---,0.00,VWS V14.01,2013-05-15 12:40:00,
2013-05-15 07:55:00,69.5,58.1,29.80,SSW,192,4.0,10.0,67,0.00,,---,0.00,VWS V14.01,2013-05-15 12:55:00,
2013-05-15 08:10:00,69.9,58.0,29.80,South,188,4.0,12.0,66,0.00,,---,0.00,VWS V14.01,2013-05-15 13:10:00,
2013-05-15 08:40:00,70.9,59.0,29.80,SSW,199,8.0,14.0,66,0.00,,---,0.00,VWS V14.01,2013-05-15 13:40:00,
2013-05-15 08:55:00,71.4,59.0,29.81,SSW,203,7.0,14.0,65,0.00,,---,0.00,VWS V14.01,2013-05-15 13:55:00,
2013-05-15 09:10:00,72.0,58.7,29.80,SSW,208,9.0,14.0,63,0.00,,---,0.00,VWS V14.01,2013-05-15 14:10:00,
2013-05-15 09:25:00,72.7,59.4,29.80,SW,221,8.0,14.0,63,0.00,,---,0.00,VWS V14.01,2013-05-15 14:25:00,
2013-05-15 09:55:00,74.2,59.9,29.79,South,174,6.0,15.0,61,0.00,,---,0.00,VWS V14.01,2013-05-15 14:55:00,
2013-05-15 10:10:00,74.7,60.4,29.79,South,186,4.0,15.0,61,0.00,,---,0.00,VWS V14.01,2013-05-15 15:10:00,
2013-05-15 10:40:00,76.5,62.1,29.78,SSW,195,5.0,14.0,61,0.00,,---,0.00,VWS V14.01,2013-05-15 15:40:00,
2013-05-15 10:55:00,77.2,61.8,29.78,South,187,8.0,14.0,59,0.00,,---,0.00,VWS V14.01,2013-05-15 15:55:00,
2013-05-15 11:10:00,77.4,61.0,29.78,WSW,251,5.0,14.0,57,0.00,,---,0.00,VWS V14.01,2013-05-15 16:10:00,
2013-05-15 11:25:00,78.6,62.6,29.79,SW,223,7.0,9.0,58,0.00,,---,0.00,VWS V14.01,2013-05-15 16:25:00,
2013-05-15 11:55:00,79.6,62.5,29.78,SW,227,3.0,6.0,56,0.00,,---,0.00,VWS V14.01,2013-05-15 16:55:00,
2013-05-15 12:10:00,80.5,62.3,29.78,SSW,211,0.0,7.0,54,0.00,,---,0.00,VWS V14.01,2013-05-15 17:10:00,
2013-05-15 12:25:00,80.9,62.7,29.78,SW,218,1.0,8.0,54,0.00,,---,0.00,VWS V14.01,2013-05-15 17:25:00,
2013-05-15 12:40:00,81.5,62.7,29.78,South,187,4.0,9.0,53,0.00,,---,0.00,VWS V14.01,2013-05-15 17:40:00,
2013-05-15 13:10:00,82.5,63.1,29.77,SSW,200,4.0,8.0,52,0.00,,---,0.00,VWS V14.01,2013-05-15 18:10:00,
2013-05-15 13:25:00,83.0,63.6,29.76,SSW,199,2.0,9.0,52,0.00,,---,0.00,VWS V14.01,2013-05-15 18:25:00,
2013-05-15 13:40:00,83.9,63.3,29.76,SW,219,5.0,9.0,50,0.00,,---,0.00,VWS V14.01,2013-05-15 18:40:00,
2013-05-15 13:55:00,84.2,65.8,29.76,SSW,198,0.0,8.0,54,0.00,,---,0.00,VWS V14.01,2013-05-15 18:55:00,
2013-05-15 14:10:00,84.9,63.0,29.75,WSW,242,2.0,5.0,48,0.00,,---,0.00,VWS V14.01,2013-05-15 19:10:00,
2013-05-15 14:25:00,85.0,63.7,29.75,ENE,75,0.0,5.0,49,0.00,,---,0.00,VWS V14.01,2013-05-15 19:25:00,
2013-05-15 14:40:00,85.8,64.4,29.74,SE,144,2.0,8.0,49,0.00,,---,0.00,VWS V14.01,2013-05-15 19:40:00,
2013-05-15 14:55:00,85.5,64.8,29.74,ESE,119,2.0,9.0,50,0.00,,---,0.00,VWS V14.01,2013-05-15 19:55:00,
2013-05-15 15:25:00,86.0,64.0,29.73,South,176,7.0,10.0,48,0.00,,---,0.00,VWS V14.01,2013-05-15 20:25:00,
2013-05-15 15:40:00,86.1,64.1,29.73,SSE,149,2.0,12.0,48,0.00,,---,0.00,VWS V14.01,2013-05-15 20:40:00,
2013-05-15 15:55:00,85.9,65.7,29.72,SE,132,2.0,14.0,51,0.00,,---,0.00,VWS V14.01,2013-05-15 20:55:00,
2013-05-15 16:10:00,86.7,62.8,29.72,South,184,4.0,12.0,45,0.00,,---,0.00,VWS V14.01,2013-05-15 21:10:00,
2013-05-15 16:25:00,86.9,63.0,29.71,South,179,8.0,11.0,45,0.00,,---,0.00,VWS V14.01,2013-05-15 21:25:00,
2013-05-15 16:40:00,86.9,63.7,29.71,SSW,194,9.0,12.0,46,0.00,,---,0.00,VWS V14.01,2013-05-15 21:40:00,
2013-05-15 16:55:00,86.5,64.5,29.70,South,189,6.0,11.0,48,0.00,,---,0.00,VWS V14.01,2013-05-15 21:55:00,
2013-05-15 17:10:00,85.7,64.4,29.70,South,190,8.0,15.0,49,0.00,,---,0.00,VWS V14.01,2013-05-15 22:10:00,
2013-05-15 17:25:00,85.8,65.6,29.70,SSE,156,6.0,14.0,51,0.00,,---,0.00,VWS V14.01,2013-05-15 22:25:00,
2013-05-15 17:55:00,84.3,64.8,29.69,South,188,7.0,15.0,52,0.00,,---,0.00,VWS V14.01,2013-05-15 22:55:00,
2013-05-15 18:10:00,84.2,65.8,29.70,SSW,206,6.0,13.0,54,0.00,,---,0.00,VWS V14.01,2013-05-15 23:10:00,
2013-05-15 18:25:00,83.4,65.0,29.70,SSW,203,14.0,16.0,54,0.00,,---,0.00,VWS V14.01,2013-05-15 23:25:00,
2013-05-15 18:40:00,82.5,64.7,29.70,SSW,196,5.0,14.0,55,0.00,,---,0.00,VWS V14.01,2013-05-15 23:40:00,
2013-05-15 19:10:00,80.9,67.6,29.71,SSW,200,8.0,12.0,64,0.00,,---,0.00,VWS V14.01,2013-05-16 00:10:00,
2013-05-15 19:25:00,80.1,66.8,29.71,South,182,5.0,11.0,64,0.00,,---,0.00,VWS V14.01,2013-05-16 00:25:00,
2013-05-15 19:55:00,78.7,66.4,29.71,South,169,12.0,13.0,66,0.00,,---,0.00,VWS V14.01,2013-05-16 00:55:00,
2013-05-15 20:40:00,75.5,67.0,29.73,South,181,4.0,11.0,75,0.00,,---,0.00,VWS V14.01,2013-05-16 01:40:00,
2013-05-15 21:10:00,74.4,66.3,29.74,SSW,201,6.0,10.0,76,0.00,,---,0.00,VWS V14.01,2013-05-16 02:10:00,
2013-05-15 21:25:00,73.9,65.9,29.74,South,184,7.0,11.0,76,0.00,,---,0.00,VWS V14.01,2013-05-16 02:25:00,
2013-05-15 21:40:00,73.5,64.7,29.75,SSW,192,5.0,13.0,74,0.00,,---,0.00,VWS V14.01,2013-05-16 02:40:00,
2013-05-15 21:55:00,73.1,64.3,29.77,SSW,192,4.0,12.0,74,0.00,,---,0.00,VWS V14.01,2013-05-16 02:55:00,
2013-05-15 22:10:00,72.7,64.3,29.77,South,180,5.0,10.0,75,0.00,,---,0.00,VWS V14.01,2013-05-16 03:10:00,
2013-05-15 22:25:00,72.2,64.2,29.78,South,186,3.0,8.0,76,0.00,,---,0.00,VWS V14.01,2013-05-16 03:25:00,
2013-05-15 22:40:00,71.8,64.9,29.78,South,173,6.0,9.0,79,0.00,,---,0.00,VWS V14.01,2013-05-16 03:40:00,
2013-05-15 22:55:00,71.9,65.4,29.78,South,185,5.0,13.0,80,0.00,,---,0.00,VWS V14.01,2013-05-16 03:55:00,
2013-05-15 23:10:00,71.7,65.6,29.79,South,178,0.0,13.0,81,0.00,,---,0.00,VWS V14.01,2013-05-16 04:10:00,
2013-05-15 23:25:00,71.2,65.4,29.78,South,180,8.0,10.0,82,0.00,,---,0.00,VWS V14.01,2013-05-16 04:25:00,
2013-05-15 23:40:00,70.6,65.5,29.78,SSE,165,4.0,10.0,84,0.00,,---,0.00,VWS V14.01,2013-05-16 04:40:00,
2013-05-15 23:55:00,70.0,64.9,29.78,South,180,6.0,14.0,84,0.00,,---,0.00,VWS V14.01,2013-05-16 04:55:00,